Weather Roundup
Issued by NWS Chicago, IL

Home | Current Version | Previous Version | Text Only | Print | Product List | Glossary Off
Versions: 1 2 3 4 5 6 7 8 9 10 11 12 13 14 15 16 17 18 19 20 21 22 23 24 25 26 27 28 29 30 31 32 33 34 35 36 37 38 39 40 41 42 43 44 45 46 47 48 49 50

000
NZUS59 KLOT 191510
HRRLOT

CHICAGO AREA WEATHER ROUNDUP
NATIONAL WEATHER SERVICE CHICAGO/ROMEOVILLE IL
900 AM CST FRI DEC 19 2014

NOTE: "FAIR" INDICATES FEW OR NO CLOUDS BELOW 12,000 FEET WITH NO
SIGNIFICANT WEATHER AND/OR OBSTRUCTIONS TO VISIBILITY.

* THESE STATIONS ARE NOT UNDER NWS QUALITY CONTROL. THEY ALSO MAY NOT
  REPORT WEATHER SUCH AS PRECIPITATION OR FOG.

ILZ005-006-012>014-019>023-191600-
NORTHEAST ILLINOIS

CITY           SKY/WX    TMP DP  RH WIND       PRES   REMARKS
OHARE          CLOUDY    28  21  75 N7        30.30R WCI  21
MIDWAY         CLOUDY    31  22  69 N7        30.30R WCI  24
AURORA         CLOUDY    29  22  75 NE8       30.30S WCI  21
LANSING*       CLOUDY    29  24  82 CALM      30.30R
JOLIET*        CLOUDY    28  23  80 CALM      30.31R
WAUKEGAN       CLOUDY    27  20  75 NW6       30.30R WCI  20
DUPAGE AIRPORT CLOUDY    29  22  75 N6        30.29S WCI  23
WHEELING       CLOUDY    28  20  71 N7        30.32R WCI  21
KANKAKEE*      CLOUDY    26  23  87 W5        30.32R WCI  21
MORRIS*        SUNNY     24  22  92 CALM      30.31R
LEWIS AIRPORT* CLOUDY    29  23  80 N6        30.30R WCI  23
NORTHERLY IS     N/A     30  22  72 N7          N/A  WCI  23
$$

WIZ051-052-058>065-066-070>072-191600-
SOUTHEAST WISCONSIN

CITY           SKY/WX    TMP DP  RH WIND       PRES   REMARKS
MILWAUKEE      CLOUDY    27  18  69 NW9       30.31R WCI  18
KENOSHA*       CLOUDY    27  20  75 NW7       30.30R WCI  19
RACINE*        CLOUDY    28  19  69 NW7       30.32R WCI  21
BURLINGTON     CLOUDY    25  18  75 N3        30.31S
WAUKESHA       CLOUDY    23  19  86 NW3       30.31R
WEST BEND      CLOUDY    23  19  86 CALM      30.30R
$$

INZ001>003-010>013-019-020-191600-
NORTHWEST INDIANA

CITY           SKY/WX    TMP DP  RH WIND       PRES   REMARKS
GARY*          CLOUDY    32  21  64 CALM      30.30S
MICHIGAN CITY* NOT AVBL
RENSSELAER*    NOT AVBL
VALPARAISO     CLOUDY    30  23  75 NW7       30.28S WCI  23
$$

LMZ740>746-191600-
SOUTHERN LAKE MICHIGAN

STATION/POSITION TIME  SKY/WX   TEMP WIND        PRES    VSBY
                                AIR  DIR/SP/G
                 (UTC)          (F)  (DEG/KT/KT) (MB)    (MI)
HARRISON CRIB    1500            30  340/  9/ 11   N/A
BURNHAM HARBOR   1500            30  350/  7/  9   N/A
CALUMET HARBOR   1500            31  300/  3/  4 1024.6R
BURNS HARBOR     NOT AVBL
MICHIGAN CITY    NOT AVBL
$$

ABBREVIATIONS USED IN REMARKS
   TC - TEMPERATURE IN CELSIUS
  WCI - WIND CHILL INDEX
   HX - HEAT INDEX
  VSB - VISIBILITY
$$



USA.gov is the U.S. government's official web portal to all federal, state and local government web resources and services.